Regional Weather Roundup
Issued by NWS Charleston, SC

Home | Current Version | Previous Version | Text Only | Print | Product List | Glossary On
Versions: 1 2 3 4 5 6 7 8 9 10 11 12 13 14 15 16 17 18 19 20 21 22 23 24 25 26 27 28 29 30 31 32 33 34 35 36 37 38 39 40 41 42 43 44 45 46 47 48 49 50
693
ASUS42 KCHS 242029
RWRCHS

REGIONAL WEATHER ROUNDUP
NATIONAL WEATHER SERVICE CHARLESTON SC
400 PM EDT SUN SEP 24 2017

NOTE: "FAIR" INDICATES FEW OR NO CLOUDS BELOW 12,000 FEET WITH NO
SIGNIFICANT WEATHER AND/OR OBSTRUCTIONS TO VISIBILITY.

NOT ALL STATIONS ARE QUALITY CONTROLLED. USE DATA WITH CAUTION...
ESPECIALLY DEWPOINT OBSERVATIONS.

SCZ027-030-031-034>040-042>050-242100-
...SOUTHEAST SOUTH CAROLINA...

CITY           SKY/WX    TMP DP  RH WIND       PRES   REMARKS
N CHARLESTON   PTSUNNY   83  68  60 N8        29.94F
WATERFRONT PRK   N/A     82  70  66 E12       29.79F
JOHNS ISLAND   FAIR      84  70  61 NE10      29.94F
PINOPOLIS        N/A     82  70  65 NE9       29.89F
MONCKS CORNER  FAIR      82  64  54 NE9       29.95F
SUMMERVILLE    FAIR      82  70  65 N7        29.96F
BEAUFORT MCAS  PTSUNNY   87  70  56 VRB7      29.96S HX  92
BEAUFORT ARPT  MOCLDY    82  68  61 NE13      29.95F
HILTON HEAD IS MOSUNNY   84  70  61 NE6       29.96S
WALTERBORO     MOCLDY    82  66  57 NE10G16   29.97F
ALLENDALE      NOT AVBL

...SOUTHERN MIDLANDS AND PEE DEE...

CITY           SKY/WX    TMP DP  RH WIND       PRES   REMARKS
GEORGETOWN     FAIR      81  70  69 NE9G16    29.95F
KINGSTREE      FAIR      82  66  57 NE6       29.96F
ORANGEBURG     CLOUDY    84  65  52 E9G17     29.97F
BARNWELL       FAIR      86  68  54 NE9G16    29.98F
AIKEN          MOCLDY    84  64  51 N14       30.03F
MANNING        FAIR      84  61  45 MISG      29.97S
COLUMBIA       PTSUNNY   87  65  47 NE8       29.98F
SUMTER         PTSUNNY   86  66  49 NE14      29.95F
FLORENCE       MOSUNNY   86  67  52 NE13      29.97F
MYRTLE BEACH   PTSUNNY   84  68  58 N13       29.95F
N MYRTLE BEACH CLOUDY    84  67  56 N13       29.94F

$$

GAZ063-065-086>088-099>101-113>116-118-119-134>141-150-242100-
...SOUTHEAST GEORGIA...

CITY           SKY/WX    TMP DP  RH WIND       PRES   REMARKS
SAVANNAH ARPT  PTSUNNY   88  66  48 NE12      29.95F HX  90
HUNTER AAF     MOSUNNY   86  71  61 N8        29.92F HX  91
FORT STEWART   MOSUNNY   86  67  52 NE7       29.92F
STATESBORO     MOSUNNY   87  60  40 E5        29.96F
SYLVANIA       PTCLDY    85  70  61 E8        29.97F
CLAXTON        FAIR      87  69  54 N6        29.95F HX  90

...CSRA...CENTRAL AND FAR SOUTHEAST GEORGIA...

CITY           SKY/WX    TMP DP  RH WIND       PRES   REMARKS
THOMSON        PTSUNNY   83  65  54 SE7       30.05F
AUGUSTA-BUSH   MOSUNNY   89  66  46 NE9       29.97F HX  91
AUGUSTA-DANIEL MOSUNNY   87  63  44 NE12      30.00F
SWAINSBORO     FAIR      86  66  51 E9        29.98F
VIDALIA        MOSUNNY   88  68  51 E8        29.96F HX  91
EASTMAN        FAIR      88  50  26 E7        29.99F
HAZLEHURST     FAIR      88  50  26 E9        29.94F
ALMA           MOSUNNY   88  64  44 E9        29.94F
WAYCROSS       MOSUNNY   87  63  44 E5        29.93F
JESUP          NOT AVBL
BAXLEY         FAIR      86  63  45 E8        29.94F
BRUNSWICK      MOSUNNY   82  70  65 NE12      29.95S
SAINT SIMONS   MOSUNNY   85  72  65 NE15      29.93F HX  91

$$

SCZ027-028-034-036>038-045-046-048>050-GAZ119-141-242100-
...LAKE AND SUPPLEMENTAL COASTAL OBSERVATIONS...

STATION/POSITION TIME  TEMP    WIND        PRES    WAVE   SWELL
                       AIR SEA DIR/SP/G            HT/PER HT/PER/DIR
                 (UTC) (F)     (DEG/KT/KT) (MB)    (FT/S) (FT/S/D)
WINYAH BAY       1845   80      60/ 14     1015.0
LAKE MURRAY      1920   83      50/  3/  7 1014.9F
ACE BASIN NERRS  1845   83      10/  3     1014.0
FORT PULASKI     1942   80 81   90/ 16/ 19 1014.6F
SAPELO ISLAND    1900   82        CALM     1014.0

$$

ANZ835-935-AMZ111-154-330-350-352-354-370-450-454-472-242100-
...C-MAN AND BUOY OBSERVATIONS...

STATION/POSITION TIME  TEMP    WIND        PRES    WAVE   SWELL
                       AIR SEA DIR/SP/G            HT/PER HT/PER/DIR
                 (UTC) (F)     (DEG/KT/KT) (MB)    (FT/S) (FT/S/D)
BUOY 41004       1950   79 81   30/ 19/ 27 1012.4F  10/14   8/130/14
BUOY 41008       1950   79 81   40/ 17/ 19 1013.1F   6/ 6   3/110/11
FOLLY BEACH CMAN 2000   80      50/ 18/ 20 1014.4F
CAPERS NEARSHORE 1908   78 80   60/ 19/ 25 1013.7F
FRIPP NEARSHORE  1908   80      50/ 12/ 16 1020.9F


STATION/POSITION TIME  TEMP    WIND        PRES    WAVE   SWELL
                       AIR SEA DIR/SP/G            HT/PER HT/PER/DIR
                 (UTC) (F)     (DEG/KT/KT) (MB)    (FT/S) (FT/S/D)
5E ST. MARYS GA  2000      81                N/A     6/13   3/130/13
FRYING PAN BUOY  2000   80 82   40/ 23/ 29 1012.5
BUOY 41025       1950   75 79   20/ 19/ 23 1014.0F  11/15  10/160/15
CAPE LOOKOUT NC  2000   78      40/ 22/ 25 1013.9F
BUOY 41002       1950   80 80   30/ 29/ 35 1005.2F  22/15  18/150/15
BUOY 41010       1950           20/ 14/ 17 1010.6F  10/14   8/14
ST AUGUSTINE FL  2000   81 83   10/ 17/ 19 1013.0F


$$




USA.gov is the U.S. government's official web portal to all federal, state and local government web resources and services.